Location: Audinghen
(50.8518°N, 1.6129°E)
Time: 23:38:18
(UTC+00:00)

Cosmos 2297 Rocket - Pass Details

Date: 07 August 2020
Orbit: 838 x 845 km, 71.0° (Epoch: 23 September)

Event Time Altitude Azimuth Distance (km) Brightness Sun altitude
Exits shadow 00:46:03 23° 131° (SE) 1,717 3.5 -22.0°
Maximum altitude 00:47:44 27° 104° (ESE) 1,576 3.6 -22.0°
Drops below altitude 10° 00:52:21 10° 49° (NE) 2,466 5.4 -21.8°
Sets 00:55:08 0° 37° (NE) 3,406 6.5 -21.7°
